Address 0xcd5b38549139e4cf0d9322c4f1c802f89901227b

Txn Hash
Block
From
To
Value [Txn Fee]
0xed90a81d86bf927ad6d2f809b754647ddfa180e3df19719910a018d28ada52eb67690502021-03-03 14:52:403 days 1 hr ago0xcd5b38549139e4cf0d9322c4f1c802f89901227bOUT 0x7dbd7ad7f4aa287f568097e4b07e59133c2f57760 BNB0.0013745
0x2a2f304b65ab328f03c8293fb716e92cdfb77639895e61897c12073282de43b467690292021-03-03 14:51:373 days 1 hr ago0xcd5b38549139e4cf0d9322c4f1c802f89901227bOUT 0x7dbd7ad7f4aa287f568097e4b07e59133c2f57760 BNB0.01379166
0x78c5c3b2becc55be0e662e3539f22c136a4b9500188395316da22debcdd818a667687282021-03-03 14:36:343 days 1 hr ago0xcd5b38549139e4cf0d9322c4f1c802f89901227bOUT0xdc67748e4986c4c1043bba5c4a068de6000049623 BNB0.003066
0xf4782806b9742105d36490cd86eb86580e74c47f7ad34a820a5cc288bb94877266964062021-03-01 1:25:535 days 15 hrs ago0xcd5b38549139e4cf0d9322c4f1c802f89901227bOUT 0x9fd3f548fff30ff0b9cd11d3e4b492c09833dce80 BNB0.01005248
0xd84b309c4f3262107419659a5d514e213d1590236db3b595afbe6caa4510f61266915862021-02-28 21:00:185 days 19 hrs ago0xcd5b38549139e4cf0d9322c4f1c802f89901227bOUT 0x286dddce7c415bee4456a0f738eba31f2d5067820 BNB0.00876116
0x4902213451ef3d14822dec1a7d2738535e90c18cda98cd4eb29d3f84c6abfbc066915592021-02-28 20:58:575 days 19 hrs ago0xcd5b38549139e4cf0d9322c4f1c802f89901227bOUT Contract Creation0 BNB0.05306202
0xdba0e93e10c0498a9a8a37ac84dcb1f85a0c7a538a8387194839d89fdd2f7fbe66914882021-02-28 20:55:245 days 19 hrs ago0xcd5b38549139e4cf0d9322c4f1c802f89901227bOUT 0x129e4cd809c4ceebab876dd2a2d8cb56c231e4a60 BNB0.00069618
0x8c6f0d04cb7b8c1da70a53f6b5d9e04a2abf9c03de858405868ad8572794b6ff66914862021-02-28 20:55:185 days 19 hrs ago0xcd5b38549139e4cf0d9322c4f1c802f89901227bOUT 0x129e4cd809c4ceebab876dd2a2d8cb56c231e4a60 BNB0.00057518
0x2bae6873312a715a6c85829de9d16370c6f15ca2ecf99c6f616e6a3d3f237bb766914842021-02-28 20:55:125 days 19 hrs ago0xcd5b38549139e4cf0d9322c4f1c802f89901227bOUT Contract Creation0 BNB0.03767468
0x4ceed5c57de1f12b14d1a83290d60cf0a405dac9dc8a3dcfbf5b9fbc0871450166914822021-02-28 20:55:065 days 19 hrs ago0xcd5b38549139e4cf0d9322c4f1c802f89901227bOUT Contract Creation0 BNB0.0626437
0x4bb81402958be6cfd51e3daa7a62b5405be246c13e39d56965a8fd6b6b9d5b1f66914802021-02-28 20:55:005 days 19 hrs ago0xcd5b38549139e4cf0d9322c4f1c802f89901227bOUT 0xd97657f1caa3d30cecf21dd6eda1994c292ee4c90 BNB0.00228962
0x2ed1ba059c758b7899beba64d6af179e1366f4a7ec14a87717ab58a7cf6c14d266914782021-02-28 20:54:545 days 19 hrs ago0xcd5b38549139e4cf0d9322c4f1c802f89901227bOUT 0xe700da71ff665c4137ee1da600994e335d37e4140 BNB0.00200044
0xe36f1c3f12eb5b11c25115e4ee0a300075e9eca4857eb860edd826c7759e053166914762021-02-28 20:54:485 days 19 hrs ago0xcd5b38549139e4cf0d9322c4f1c802f89901227bOUT 0x3f366bb1943bc03878d994b0c496a68c778ff5db0 BNB0.00089372
0xedd3486ce0dd92321182512600a7b3ad0eeb29ef95203e07cd26d0f7b875ab0c66914742021-02-28 20:54:425 days 19 hrs ago0xcd5b38549139e4cf0d9322c4f1c802f89901227bOUT 0x1e1c506fa4e6f59aecdaf83f4d74a82f14adea880 BNB0.00089064
0xaae79ae2f6a112306e90fcf3f2e4fd60964d5721c15d96a42fa03317ac989dc666914722021-02-28 20:54:365 days 19 hrs ago0xcd5b38549139e4cf0d9322c4f1c802f89901227bOUT Contract Creation0 BNB0.0638485
0x71e0d2c19a0dc1de0fbe235398d5de7966a34152a57009032641ab9d2815861966914702021-02-28 20:54:305 days 19 hrs ago0xcd5b38549139e4cf0d9322c4f1c802f89901227bOUT Contract Creation0 BNB0.0194493
0xc6b717d51e5f043511b06ff1ab694b7b827f89669de53f5b1e8951f038bbf0d866914682021-02-28 20:54:245 days 19 hrs ago0xcd5b38549139e4cf0d9322c4f1c802f89901227bOUT Contract Creation0 BNB0.0091108
0x53dcae9e9e2a96e13ceff3ff6d7895d5022b83da9cb33db31acf107d2455cec466914662021-02-28 20:54:185 days 19 hrs ago0xcd5b38549139e4cf0d9322c4f1c802f89901227bOUT 0xe700da71ff665c4137ee1da600994e335d37e4140 BNB0.00199956
0xd9eb4786df7643ce156b5b55a830421a371dcd4a8e195856618a1238f56deca866914642021-02-28 20:54:125 days 19 hrs ago0xcd5b38549139e4cf0d9322c4f1c802f89901227bOUT 0xbccef85855de8e0effcf9472929d8647fd6589b50 BNB0.00089372
0x39429ecadd359cd73435c7fada5c59417e65da6fadd7dcc35a2b4b3360d9269f66914622021-02-28 20:54:065 days 19 hrs ago0xcd5b38549139e4cf0d9322c4f1c802f89901227bOUT 0x877cc869bdd87f094dddf02bff8fa177e03d406a0 BNB0.00089064
0xc9b6bd2eedf81a49bd85f3e87a8e7aede4da37971c45faf2c06d0b10baea38c666914602021-02-28 20:54:005 days 19 hrs ago0xcd5b38549139e4cf0d9322c4f1c802f89901227bOUT Contract Creation0 BNB0.05728746
0x99f4eb8dbe6d4d3a41e64cbbf590fdff787e1a823cb04528217362900d7970b366914582021-02-28 20:53:545 days 19 hrs ago0xcd5b38549139e4cf0d9322c4f1c802f89901227bOUT Contract Creation0 BNB0.0194493
0xebbd9890ccbf2f4bcc32cdd421457bf7b3677747f327c3adc25505ede361a9fd66914562021-02-28 20:53:485 days 19 hrs ago0xcd5b38549139e4cf0d9322c4f1c802f89901227bOUT Contract Creation0 BNB0.0091108
0x77a69117e2a636e295aea520834c1b451c8d42e4d128195104963b7c9b30502a66914552021-02-28 20:53:455 days 19 hrs ago0xcd5b38549139e4cf0d9322c4f1c802f89901227bOUT 0xd97657f1caa3d30cecf21dd6eda1994c292ee4c90 BNB0.00258962
0x624e9468bca61dfbaa9ccbb40b5f55a5a7a643b71b7fc28aecc81e85a16c98ae66914532021-02-28 20:53:395 days 19 hrs ago0xcd5b38549139e4cf0d9322c4f1c802f89901227bOUT 0xe700da71ff665c4137ee1da600994e335d37e4140 BNB0.0020002
[ Download CSV Export 
Parent Txn Hash Block From To Value
Loading

Contract Name:
0 BNB

Compiler Version
0

Optimization Enabled:
0 BNB

Other Settings:
-NA-
Block Transaction Gas Used Reward
Age Block Fee Address BC Fee Address Voting Power Jailed Incoming
Block Uncle Number Difficulty Gas Used Reward
Loading